Location: Praha
(50.0830°N, 14.4670°E)
Time: 16:15:31
(UTC+01:00)

ISS - Pass Details

Date: 20 November 2020
Orbit: 418 x 420 km, 51.6° (Epoch: 04 December)

Event Time Altitude Azimuth Distance (km) Brightness Sun altitude
Rises 18:05:15 0° 202° (SSW) 2,349 0.5 -17.9°
Reaches altitude 10° 18:07:51 10° 181° (S) 1,490 -0.8 -18.3°
Enters shadow 18:09:09 15° 160° (SSE) 1,218 -1.5 -18.5°
